Location: Limerick
(52.6650°N, 8.6230°W)
Time: 02:21:24
(UTC+01:00)

N. Korean satellite - Visible Passes

Search period start: 21 September 2017 00:00
Search period end: 01 October 2017 00:00
Orbit: 461 x 515 km, 97.2° (Epoch: 20 September)

Date Brightness Start Highest point End Pass type
(mag) Time Alt. Az. Time Alt. Az. Time Alt. Az.
21 Sep 10.1 20:54:08 10° WSW 20:55:50 13° W 20:57:30 10° WNW visible
22 Sep 9.7 20:29:30 10° SW 20:32:23 21° W 20:35:16 10° NW visible
23 Sep 8.6 20:05:35 10° SSW 20:09:01 34° W 20:12:28 10° NNW visible
25 Sep 10.1 20:54:58 10° WSW 20:56:31 12° W 20:58:02 10° WNW visible
26 Sep 9.7 20:30:14 10° SW 20:33:03 20° W 20:35:52 10° NW visible
27 Sep 8.7 20:06:17 10° SSW 20:09:40 33° W 20:13:03 10° NNW visible
29 Sep 10.1 20:55:45 10° WSW 20:57:09 12° W 20:58:30 10° WNW visible
30 Sep 9.7 20:30:56 10° SW 20:33:40 19° W 20:36:23 10° NW visible
